Wind_Speed
21 22 22 23 24 25 25 24 24 24 24 23 22 21 20 19 18 18 16 15 15 15 14 14 13 12 12 12 11 11 11 10 9 9 8 8 7 7 6 6 5 5 4 4 4 4 4 5 5
22 22 23 24 25 25 25 25 26 26 26 25 24 23 22 21 20 19 18 17 16 16 16 15 15 14 13 13 13 12 12 11 11 10 10 9 9 9 8 8 7 7 6 6 6 6 6 6 6
22 23 23 24 25 25 25 26 26 27 27 27 26 25 24 23 22 21 20 19 18 18 17 17 16 15 15 15 14 14 14 13 12 12 11 11 10 10 10 10 9 9 8 8 7 7 7 7 7
22 23 24 24 24 24 25 26 27 27 28 27 27 27 26 25 24 23 22 21 21 20 19 18 17 17 16 16 16 16 15 15 14 14 13 12 12 12 11 11 11 11 11 10 10 9 9 9 9
23 23 23 24 23 24 25 26 27 28 28 28 28 28 27 27 25 24 24 23 22 22 21 20 19 18 17 17 18 17 17 16 16 15 15 14 14 14 13 13 13 13 13 12 12 12 11 11 11
23 23 23 23 22 23 25 26 27 28 28 28 28 28 28 28 27 26 25 25 24 23 23 22 21 21 20 19 19 19 18 18 18 17 17 16 15 15 15 15 15 15 14 14 14 14 14 13 13
23 23 23 23 23 24 25 26 27 28 29 28 28 29 28 29 29 28 27 26 26 25 24 24 24 23 22 21 21 21 20 19 19 19 19 18 18 17 17 17 16 16 16 16 16 16 16 16 15
23 24 24 24 24 24 25 26 27 28 28 29 29 29 28 29 29 29 28 28 27 27 26 26 25 25 24 24 23 22 21 21 21 21 20 20 20 19 19 19 19 18 18 18 18 18 18 18 17
24 24 24 24 24 24 25 26 27 28 28 29 29 29 29 29 30 30 29 29 29 28 28 28 27 26 26 25 25 24 24 24 23 22 22 22 22 22 21 21 21 21 21 21 21 21 20 20 20
24 24 23 24 24 24 25 26 27 28 28 29 29 30 30 30 30 30 30 30 30 30 30 30 29 28 28 27 27 27 26 25 25 24 24 24 24 24 24 23 23 24 24 24 23 23 23 23 22
25 24 24 24 25 25 25 26 27 28 28 28 30 31 31 31 30 31 31 30 30 30 31 31 31 31 31 30 29 29 28 27 27 26 26 26 26 26 26 26 25 26 26 26 25 25 25 25 24
26 25 25 25 26 26 27 27 28 29 29 30 31 32 32 32 32 31 32 32 32 32 32 32 31 32 32 32 31 31 30 29 29 28 28 27 27 28 28 28 27 27 27 27 27 28 28 27 27
27 26 27 27 27 28 28 28 29 29 30 31 31 32 33 33 33 33 33 34 34 33 33 33 33 33 33 33 32 32 31 31 31 31 30 29 29 29 29 30 29 29 29 29 29 30 30 30 30
27 27 28 28 29 28 29 29 29 29 31 32 32 33 33 33 34 34 35 35 35 36 36 36 35 35 35 34 34 33 33 33 32 32 31 31 31 31 31 31 31 31 30 30 30 31 32 32 32
27 28 28 29 29 29 29 29 30 30 31 32 33 33 34 34 35 35 35 36 36 37 38 38 36 37 37 36 36 36 35 35 34 33 33 32 33 33 32 33 33 33 33 32 32 32 32 33 33
27 28 28 28 29 29 30 30 29 31 32 34 34 34 34 35 36 36 36 37 38 38 39 39 38 37 37 37 37 37 36 35 35 35 34 34 34 34 34 34 34 34 34 34 33 33 33 33 34
28 28 28 28 28 29 29 29 29 30 32 34 35 35 35 36 37 37 37 37 38 39 39 40 40 39 39 38 37 38 38 38 37 36 36 36 36 36 35 36 35 36 35 35 34 34 34 33 34
27 28 28 29 29 30 30 30 29 30 32 33 33 34 35 36 36 38 38 38 39 40 40 41 41 41 41 41 40 39 39 40 39 38 37 37 36 36 36 37 37 36 35 35 35 34 34 34 34
27 28 29 29 29 30 30 30 30 30 31 31 32 32 34 35 36 38 39 38 39 40 40 41 42 42 43 43 43 42 41 41 40 39 38 38 37 36 36 36 37 37 36 35 35 34 35 35 36
28 28 28 29 29 29 30 30 29 30 30 30 31 32 33 34 35 36 38 38 39 39 39 41 41 41 42 43 43 43 43 42 42 41 40 40 38 37 36 36 36 37 36 36 36 36 35 36 36
28 28 28 28 29 30 30 30 29 29 30 30 30 31 32 33 34 34 36 38 39 38 38 39 41 41 41 42 43 43 43 42 42 43 41 41 40 39 38 37 37 36 36 36 36 36 37 37 37
28 28 28 29 29 29 30 31 29 28 29 30 30 30 31 31 32 33 34 35 37 38 38 38 39 40 41 42 42 43 42 42 42 43 43 42 42 41 40 41 40 39 39 38 37 37 38 38 38
27 27 28 29 29 29 29 31 29 28 28 29 29 29 30 30 30 32 33 34 36 37 37 38 39 39 39 40 42 43 43 43 43 43 42 42 42 42 42 42 42 41 40 39 39 39 39 39 39
27 27 28 29 30 30 28 30 30 28 28 28 29 29 30 30 30 31 33 34 35 36 36 37 38 39 39 40 41 42 43 43 43 43 43 43 43 43 42 43 43 42 41 41 40 40 40 41 41
26 26 27 29 30 31 29 30 30 28 28 29 29 29 29 30 31 31 31 33 35 36 37 37 38 39 40 40 41 42 42 42 42 43 44 44 44 44 43 43 43 43 43 42 42 42 41 42 42
26 26 27 29 30 31 31 31 30 29 28 29 29 29 29 29 30 30 31 31 33 36 37 38 39 40 41 41 42 42 42 42 42 43 43 44 44 44 43 43 43 44 44 44 43 42 42 43 44
27 27 28 29 31 32 32 32 30 29 29 28 29 29 30 30 31 31 31 31 31 33 36 37 39 40 41 42 43 43 43 43 43 43 43 44 44 43 43 44 44 45 46 46 46 45 44 44 44
26 27 28 29 30 31 32 31 30 29 29 29 29 29 29 30 30 31 32 32 33 34 35 37 38 39 40 41 42 43 43 44 43 43 43 43 44 44 44 45 45 46 47 47 47 47 48 48 47
24 25 27 28 30 30 31 30 28 28 29 29 29 29 28 30 31 32 33 33 33 34 34 35 36 38 39 41 42 43 43 43 43 44 43 44 44 45 45 45 46 46 47 47 47 47 48 48 49
22 23 25 27 28 29 30 29 29 30 29 30 29 29 29 30 30 31 32 33 33 34 34 34 35 37 38 40 41 42 42 42 42 43 43 43 44 45 45 46 46 46 46 47 47 47 48 48 49
Wind_Direction
252 253 251 250 250 249 248 246 243 240 239 238 238 237 237 237 237 239 240 239 238 236 233 232 231 230 227 224 223 223 222 222 224 223 222 222 222 221 221 221 219 223 227 229 234 244 249 250 253
253 252 252 250 250 250 248 245 243 240 239 238 238 237 237 237 237 238 238 238 237 236 235 233 232 232 231 228 227 227 226 226 227 228 227 228 230 230 230 230 233 236 235 235 240 247 254 256 259
254 253 252 251 249 249 248 246 244 241 239 238 238 237 237 237 237 237 238 238 237 236 235 234 233 233 233 231 230 230 232 231 230 230 231 232 235 237 236 237 242 243 243 243 247 253 256 258 260
257 256 253 251 249 248 247 246 244 242 240 238 238 237 237 237 237 238 239 238 237 235 234 234 234 234 234 233 233 233 234 234 232 233 234 236 238 239 241 243 244 246 247 248 252 256 259 261 262
258 257 255 252 249 248 247 246 245 244 241 239 238 238 237 236 237 237 239 240 239 237 235 234 235 235 235 234 235 236 237 235 234 235 237 240 242 242 244 246 246 247 248 251 254 257 257 259 260
257 256 255 252 250 248 247 246 245 244 243 242 240 239 238 236 236 237 237 238 238 238 236 234 236 236 237 237 238 238 238 237 237 238 240 243 245 246 247 249 250 249 251 254 257 258 257 256 257
257 255 254 252 251 248 246 245 245 245 243 242 241 240 239 238 238 239 237 237 237 237 237 235 236 238 239 239 240 238 238 239 240 242 243 245 247 250 251 251 252 253 253 256 258 259 258 256 256
258 256 254 252 252 250 247 246 244 244 244 243 242 241 240 239 239 240 238 238 238 238 238 238 238 239 241 241 241 239 239 241 242 244 245 247 249 251 253 255 256 256 257 258 260 259 258 257 256
258 257 255 253 253 249 247 246 244 243 243 244 245 244 242 240 240 240 240 239 239 239 240 240 240 240 242 243 243 241 242 244 245 246 247 249 251 253 256 257 258 259 259 259 260 259 258 257 257
257 256 255 254 252 249 248 248 246 244 243 244 244 244 243 241 241 242 242 240 239 239 239 239 240 241 242 244 244 243 244 246 248 249 249 251 254 256 257 259 260 261 261 259 258 258 258 257 257
256 256 255 254 252 250 249 248 247 245 244 245 244 244 244 243 242 242 241 240 240 239 240 240 240 241 243 244 245 246 246 248 250 252 252 254 256 257 258 259 261 262 261 259 258 258 257 256 257
256 255 255 255 254 252 251 250 248 246 246 245 245 245 244 243 243 243 242 240 240 241 241 242 242 243 244 245 245 246 247 250 251 253 254 255 257 258 259 260 261 262 261 259 259 258 256 256 257
257 256 255 255 255 253 252 250 249 249 248 246 245 245 245 244 243 242 242 241 240 241 241 242 243 243 244 245 245 246 248 250 251 252 254 255 257 259 261 262 262 261 261 260 259 258 256 256 257
258 256 256 255 255 254 253 252 251 250 249 246 246 245 245 244 244 243 243 242 242 242 241 242 244 243 244 244 245 246 247 249 250 252 254 256 258 260 262 263 263 262 261 261 260 258 257 258 258
259 258 256 256 255 254 254 253 253 251 249 246 246 247 246 244 244 244 244 244 243 244 243 243 245 244 244 244 245 247 247 248 249 252 255 257 259 261 261 262 262 262 262 261 260 259 258 259 260
259 258 258 259 259 256 255 255 253 252 250 246 246 246 246 245 245 245 245 246 247 246 245 245 247 247 247 246 245 247 248 248 250 252 254 257 260 262 262 260 260 261 261 261 260 259 259 260 261
260 260 260 260 260 257 256 254 254 252 250 248 247 246 246 247 247 247 248 247 247 247 247 246 247 247 248 248 249 248 249 250 252 253 254 257 260 262 263 260 261 260 260 260 260 260 260 261 260
262 261 260 259 259 258 256 255 255 253 250 250 249 248 248 248 248 249 249 249 248 248 248 248 247 247 248 249 250 250 250 250 252 254 255 256 259 262 261 260 261 260 259 259 260 260 259 261 261
260 259 259 259 259 258 257 256 254 254 253 251 251 251 249 248 249 249 249 249 249 250 250 249 249 249 250 251 252 252 251 251 251 253 256 257 258 260 262 262 262 260 259 258 259 259 260 261 262
259 259 260 259 258 259 259 257 254 254 254 253 252 251 250 249 249 250 249 248 249 250 251 250 250 251 251 252 252 253 253 253 253 253 256 257 258 259 261 261 261 261 260 259 259 260 261 263 264
257 258 258 258 258 259 259 257 256 255 255 254 253 253 252 251 250 250 250 249 249 250 250 250 249 250 252 252 252 253 254 255 255 255 256 257 257 257 259 260 261 261 260 261 262 263 263 263 264
258 257 256 256 258 258 257 259 257 256 256 254 253 253 252 251 250 250 250 250 249 249 250 250 249 250 251 252 252 253 254 255 256 257 256 256 256 256 258 258 259 261 260 260 262 263 263 264 264
258 258 257 256 257 258 257 258 259 257 257 256 254 252 251 251 250 250 251 251 250 249 250 250 250 251 252 252 253 253 254 255 256 257 257 257 257 257 256 257 259 261 261 261 261 262 263 264 264
259 258 256 255 256 258 258 259 260 259 260 259 257 254 253 252 252 252 253 252 251 251 251 250 251 252 253 253 254 255 256 255 256 257 257 259 259 258 258 258 258 259 261 261 260 261 263 264 264
259 259 258 257 256 258 259 260 262 263 262 261 258 256 254 252 252 253 254 254 253 252 252 252 252 253 253 254 255 256 256 256 256 256 257 258 259 259 259 258 258 258 259 262 262 263 263 263 264
261 260 259 260 260 259 260 261 263 264 264 261 258 256 254 253 252 254 256 256 255 253 253 253 254 254 255 255 255 255 256 257 256 256 257 259 260 261 260 259 259 258 260 262 263 264 264 264 264
260 259 259 260 261 262 261 261 262 262 262 261 259 257 255 254 255 256 256 257 257 256 254 254 254 255 255 255 255 256 256 257 257 257 258 259 259 260 260 260 261 261 263 264 264 263 264 265 266
260 259 259 259 262 263 263 262 261 259 260 260 259 257 257 256 255 256 257 259 259 259 259 257 257 256 255 253 254 256 257 257 257 259 258 258 259 259 260 260 261 262 263 264 264 264 265 266 266
260 258 258 259 260 263 265 264 261 260 260 260 260 259 261 258 258 258 257 257 258 259 260 260 259 257 255 254 255 255 256 257 257 257 258 258 259 260 260 261 261 262 263 264 265 265 266 267 267
262 261 261 261 262 262 266 265 261 261 261 261 261 262 262 262 262 260 258 257 258 259 260 261 261 260 258 256 255 255 256 257 257 257 258 260 261 261 262 262 262 263 263 264 265 266 266 266 266
Height
5823 5824 5824 5826 5827 5827 5828 5831 5832 5834 5835 5837 5838 5840 5842 5844 5846 5849 5848 5847 5848 5849 5850 5851 5852 5853 5853 5854 5855 5855 5856 5857 5857 5857 5858 5858 5858 5859 5859 5859 5859 5859 5859 5859 5859 5859 5859 5859 5859
5818 5819 5820 5820 5821 5822 5824 5825 5826 5828 5830 5832 5834 5835 5837 5839 5841 5842 5843 5844 5845 5846 5847 5848 5849 5850 5851 5852 5853 5854 5854 5855 5855 5856 5856 5857 5857 5857 5857 5858 5858 5858 5858 5858 5858 5858 5857 5857 5857
5813 5813 5815 5815 5815 5817 5819 5819 5821 5822 5824 5827 5829 5830 5833 5835 5837 5838 5839 5840 5842 5843 5844 5845 5847 5848 5849 5849 5850 5851 5852 5853 5853 5854 5854 5855 5855 5855 5856 5856 5856 5856 5856 5856 5856 5856 5856 5856 5856
5808 5808 5809 5810 5810 5812 5813 5814 5815 5817 5819 5821 5823 5825 5828 5830 5832 5834 5835 5836 5838 5839 5841 5842 5843 5845 5846 5846 5847 5848 5849 5850 5851 5852 5852 5853 5853 5853 5853 5854 5854 5854 5854 5854 5854 5854 5854 5853 5853
5802 5803 5803 5803 5805 5806 5807 5808 5809 5811 5813 5815 5818 5820 5822 5825 5826 5829 5831 5832 5834 5835 5837 5839 5840 5841 5842 5843 5844 5845 5846 5847 5848 5849 5850 5850 5850 5851 5851 5851 5851 5851 5852 5852 5851 5851 5851 5851 5851
5797 5797 5798 5798 5799 5800 5801 5802 5804 5806 5807 5809 5812 5814 5816 5819 5821 5823 5825 5827 5829 5831 5833 5835 5836 5837 5839 5840 5841 5842 5843 5844 5845 5846 5846 5847 5847 5848 5848 5848 5848 5848 5849 5849 5848 5848 5848 5848 5848
5793 5792 5792 5793 5794 5795 5796 5796 5798 5800 5801 5804 5805 5808 5810 5813 5815 5818 5820 5822 5824 5826 5828 5830 5831 5833 5835 5836 5837 5838 5839 5840 5841 5842 5843 5844 5844 5844 5845 5845 5845 5845 5845 5845 5845 5845 5845 5844 5844
5786 5787 5787 5788 5789 5790 5790 5791 5792 5794 5796 5798 5800 5802 5805 5807 5809 5812 5814 5816 5818 5821 5823 5825 5827 5829 5830 5832 5833 5834 5835 5836 5837 5838 5839 5840 5840 5840 5841 5841 5841 5841 5841 5841 5841 5840 5840 5840 5840
5781 5782 5782 5783 5784 5784 5784 5785 5786 5788 5790 5792 5794 5796 5799 5801 5803 5806 5808 5811 5813 5815 5818 5820 5822 5824 5825 5827 5828 5830 5831 5832 5833 5834 5835 5835 5836 5836 5836 5836 5836 5836 5836 5836 5836 5836 5836 5836 5836
5775 5776 5777 5777 5778 5778 5779 5779 5781 5782 5784 5786 5788 5790 5792 5795 5797 5800 5802 5804 5807 5809 5812 5814 5817 5819 5820 5822 5823 5824 5826 5827 5828 5829 5830 5830 5831 5831 5831 5831 5831 5831 5831 5830 5830 5830 5830 5830 5831
5769 5770 5771 5771 5771 5772 5772 5773 5775 5776 5779 5781 5782 5784 5786 5788 5791 5793 5796 5798 5801 5803 5806 5808 5810 5812 5814 5816 5817 5819 5820 5822 5823 5824 5825 5825 5825 5826 5826 5826 5826 5825 5825 5824 5824 5824 5824 5825 5825
5763 5764 5764 5765 5765 5766 5766 5767 5769 5770 5773 5774 5776 5777 5780 5782 5785 5787 5789 5792 5794 5797 5799 5801 5804 5806 5808 5809 5811 5813 5814 5816 5817 5818 5819 5819 5820 5820 5820 5820 5819 5819 5818 5818 5818 5818 5818 5818 5819
5757 5757 5758 5758 5758 5759 5760 5761 5762 5764 5766 5768 5769 5771 5773 5775 5778 5780 5782 5785 5787 5790 5792 5795 5797 5799 5801 5802 5804 5806 5808 5809 5810 5811 5812 5813 5813 5813 5813 5813 5812 5812 5811 5811 5811 5811 5811 5812 5813
5750 5750 5751 5751 5751 5752 5753 5754 5756 5758 5759 5761 5762 5764 5766 5769 5771 5773 5775 5778 5781 5783 5785 5787 5789 5791 5793 5795 5797 5799 5800 5802 5803 5804 5805 5806 5806 5806 5806 5805 5805 5804 5804 5803 5803 5803 5804 5805 5806
5742 5743 5744 5744 5744 5745 5746 5748 5749 5750 5751 5753 5755 5758 5760 5762 5764 5767 5769 5771 5773 5775 5777 5780 5782 5784 5786 5787 5789 5791 5792 5794 5795 5796 5798 5798 5798 5798 5798 5797 5797 5796 5796 5795 5795 5795 5796 5797 5799
5735 5736 5736 5737 5737 5737 5740 5741 5742 5743 5744 5746 5748 5750 5752 5755 5757 5759 5762 5764 5765 5767 5769 5772 5774 5776 5778 5780 5781 5783 5784 5786 5787 5788 5789 5790 5790 5790 5789 5789 5788 5788 5788 5787 5787 5788 5789 5790 5791
5728 5728 5729 5730 5730 5730 5731 5733 5735 5736 5737 5739 5740 5742 5745 5747 5749 5751 5753 5755 5757 5759 5761 5763 5765 5768 5770 5771 5773 5774 5776 5778 5779 5780 5781 5782 5782 5782 5781 5780 5780 5780 5780 5779 5780 5780 5781 5783 5783
5722 5722 5722 5722 5723 5723 5724 5726 5728 5728 5729 5731 5733 5735 5737 5739 5741 5743 5745 5746 5748 5750 5752 5754 5757 5759 5761 5763 5764 5766 5767 5769 5770 5771 5772 5773 5773 5773 5773 5772 5772 5772 5772 5772 5772 5773 5774 5775 5776
5714 5714 5714 5715 5715 5715 5717 5718 5720 5721 5722 5724 5725 5727 5729 5731 5732 5734 5735 5737 5739 5741 5743 5745 5747 5750 5752 5754 5755 5757 5758 5760 5762 5763 5764 5764 5764 5764 5764 5764 5764 5764 5764 5764 5765 5766 5767 5768 5768
5706 5706 5707 5708 5708 5708 5709 5711 5713 5714 5715 5717 5718 5719 5720 5722 5723 5725 5726 5728 5730 5731 5733 5736 5738 5740 5742 5744 5746 5747 5749 5751 5752 5753 5754 5755 5756 5756 5756 5755 5756 5756 5756 5757 5758 5758 5759 5759 5759
5699 5699 5700 5700 5700 5700 5702 5703 5706 5707 5707 5709 5710 5711 5712 5713 5715 5716 5717 5719 5720 5722 5724 5726 5728 5730 5732 5734 5736 5738 5739 5741 5742 5744 5745 5746 5747 5747 5748 5748 5748 5748 5749 5749 5750 5750 5750 5750 5750
5692 5692 5692 5693 5693 5693 5695 5695 5698 5699 5700 5701 5702 5703 5704 5705 5706 5707 5708 5709 5711 5713 5715 5717 5719 5721 5723 5724 5726 5728 5730 5732 5734 5734 5735 5737 5737 5738 5738 5739 5740 5740 5740 5741 5741 5741 5741 5741 5742
5684 5685 5685 5685 5685 5686 5687 5687 5690 5692 5692 5694 5695 5695 5696 5697 5698 5698 5699 5700 5702 5704 5706 5708 5709 5711 5713 5715 5716 5718 5720 5722 5723 5724 5726 5727 5727 5728 5729 5730 5730 5731 5731 5732 5732 5732 5732 5732 5732
5677 5678 5677 5677 5677 5678 5681 5680 5682 5684 5685 5686 5687 5688 5688 5689 5689 5690 5691 5692 5693 5695 5696 5698 5700 5702 5704 5705 5707 5708 5710 5711 5713 5714 5716 5717 5717 5718 5718 5719 5720 5720 5721 5722 5722 5722 5722 5721 5721
5670 5671 5670 5670 5669 5671 5673 5672 5675 5677 5677 5678 5679 5680 5680 5681 5682 5682 5683 5684 5685 5686 5688 5689 5691 5692 5694 5696 5697 5698 5700 5701 5703 5704 5705 5706 5707 5708 5708 5708 5709 5710 5710 5711 5711 5712 5711 5711 5711
5663 5663 5664 5663 5663 5663 5664 5664 5668 5669 5669 5669 5670 5671 5672 5673 5674 5674 5675 5675 5676 5677 5678 5680 5681 5683 5684 5686 5687 5689 5690 5691 5692 5693 5694 5695 5696 5697 5698 5698 5699 5699 5699 5699 5700 5700 5700 5700 5700
5654 5655 5656 5655 5654 5655 5655 5657 5660 5661 5661 5661 5662 5663 5664 5665 5665 5666 5666 5667 5667 5667 5668 5670 5671 5672 5674 5675 5676 5678 5679 5680 5681 5682 5683 5684 5685 5686 5687 5688 5688 5688 5688 5688 5688 5689 5689 5689 5689
5647 5647 5648 5647 5646 5646 5647 5649 5651 5652 5653 5654 5654 5655 5656 5656 5656 5657 5657 5657 5657 5658 5658 5659 5660 5661 5663 5664 5666 5667 5669 5670 5671 5671 5672 5673 5674 5675 5675 5676 5676 5677 5677 5677 5677 5677 5677 5677 5678
5639 5640 5639 5639 5639 5639 5639 5643 5643 5644 5645 5645 5646 5647 5647 5647 5647 5647 5647 5647 5648 5648 5648 5649 5650 5651 5652 5653 5655 5656 5658 5659 5660 5661 5661 5662 5662 5663 5664 5664 5665 5665 5665 5665 5665 5665 5665 5665 5665
5631 5632 5632 5632 5632 5631 5631 5636 5635 5636 5636 5636 5637 5638 5639 5638 5638 5638 5638 5638 5638 5638 5639 5639 5640 5641 5642 5643 5644 5645 5646 5647 5648 5649 5650 5650 5651 5651 5652 5652 5653 5653 5653 5653 5653 5653 5653 5653 5653